This is the latest recevied weather packets stored in our database for station/object DB0OHA-13. If no packets are shown the sender has not sent any weather packets the latest 10 day(s).
| Time | Temp. | Humidity | Pressure | Rain* | Wind** | Luminosity | Snow |
|---|---|---|---|---|---|---|---|
| 1777745473 | 20.56° C | 46% | 1015.4 hPa | 0 mm | - | 35 W/m² | - |
| 1777744873 | 21.11° C | 44% | 1015.4 hPa | 0 mm | - | 42 W/m² | - |
| 1777744273 | 22.78° C | 40% | 1015.5 hPa | 0 mm | - | 68 W/m² | - |
| 1777743674 | 22.78° C | 41% | 1015.4 hPa | 0 mm | - | 104 W/m² | - |
| 1777743073 | 22.78° C | 41% | 1015.5 hPa | 0 mm | - | 81 W/m² | - |
| 1777742473 | 23.33° C | 38% | 1015.5 hPa | 0 mm | - | 88 W/m² | - |
| 1777741873 | 24.44° C | 35% | 1015.6 hPa | 0 mm | - | 116 W/m² | - |
| 1777741273 | 24.44° C | 34% | 1015.7 hPa | 0 mm | - | 135 W/m² | - |
| 1777740673 | 24.44° C | 35% | 1015.8 hPa | 0 mm | - | 185 W/m² | - |
| 1777740073 | 24.44° C | 33% | 1015.8 hPa | 0 mm | - | 176 W/m² | - |
| 1777739473 | 25° C | 32% | 1015.9 hPa | 0 mm | - | 202 W/m² | - |
| 1777738873 | 25° C | 32% | 1016.2 hPa | 0 mm | - | 215 W/m² | - |
| 1777738273 | 25° C | 32% | 1016.2 hPa | 0 mm | - | 247 W/m² | - |
| 1777737072 | 25.56° C | 31% | 1016.6 hPa | 0 mm | - | 281 W/m² | - |
| 1777736472 | 25.56° C | 30% | 1016.7 hPa | 0 mm | - | 307 W/m² | - |
| 1777735872 | 25.56° C | 31% | 1016.7 hPa | 0 mm | - | 352 W/m² | - |
| 1777735272 | 25.56° C | 28% | 1016.8 hPa | 0 mm | - | 420 W/m² | - |
| 1777734672 | 26.11° C | 29% | 1017 hPa | 0 mm | - | 449 W/m² | - |
| 1777734072 | 26.11° C | 32% | 1017 hPa | 0 mm | - | 482 W/m² | - |
| 1777733472 | 26.11° C | 31% | 1017.3 hPa | 0 mm | - | 481 W/m² | - |
| 1777732872 | 25.56° C | 29% | 1017.2 hPa | 0 mm | - | 521 W/m² | - |
| 1777732272 | 26.11° C | 29% | 1017.4 hPa | 0 mm | - | 567 W/m² | - |
| 1777731672 | 26.11° C | 29% | 1017.5 hPa | 0 mm | - | 590 W/m² | - |
| 1777730471 | 26.11° C | 31% | 1017.7 hPa | 0 mm | - | 623 W/m² | - |
| 1777729871 | 26.67° C | 34% | 1017.9 hPa | 0 mm | - | 647 W/m² | - |
* Rain latest hour (hover to see other rain measurements)
** Current wind speed in m/s (hover to see current wind gust speed)